DECAYED

STARLINK-2078, 47675 (Decayed)

Orbit data source: Space-Track

STARLINK-2078, 47675 was a payload satellite owned by SpaceX/Seattle (US) in LEO that was launched on Tue, 16 Feb 2021 UTC via an FALCON 9 launch vehicle from the Air Force Eastern Test Range (AFETR). Payload-class satellites include a variety of spacecraft equipped with specific instruments for various scientific and technological missions. These include communications satellites like Starlink; space stations such as the ISS; scientific satellites like the Hubble; Earth observation satellites from companies like Planet Labs, Umbra, and HawkEye 360; GPS; miniature CubeSats for education and research; and military/defense satellites.

Not visible in the next 10 days
Identifier
47675, 2021-012BH
Orbit
Decayed
Country
Flag of USUS
Related business
Manufacturer
SpaceX/Seattle
Mission
Decayed Commercial Communications
Bus & Motor
STARLINK, Unknown motor
Mass
260 kg wet, ~248 kg dry
Launch date (UTC)
2021-02-16 (5 years ago)
Launch vehicle
FALCON 9
Launch site
Air Force Eastern Test Range (AFETR)
Object type
Payload
Rocket body
Debris
Shape & HBR
Box + 1 Pan, 10.1 m
Radar Cross Section
13.562 m², Large (>1 m²)

Expand to show TLE details & history
Last TLE update: 1 year ago

TLE from 1 year ago
0 STARLINK-2078
1 47675U 21012BH  25076.66443316  .12451488  12415-4  76590-3 0  9998
2 47675  53.0321 169.0921 0003275 286.5923 245.8878 16.41366921226455
Epoch: 2025-03-17T15:56Z
TLE epoch observation values (Epoch: 2025-03-17T15:56:47.025Z)
Latitude
5.98462°
Longitude
-70.08137°
Altitude
163.392 km
Speed
7.809 km/s
True Right ascension
22h 58m 22s
True Declination
5° 56' 45"
Sunlit
Object was in daylight at epoch
Visualization orbit readout
Latitude
Unknown
Longitude
Unknown
Altitude
Unknown
Speed
Unknown
Apparent Right ascension
Unknown
Apparent Declination
Unknown
Sunlit
N/A
Visualization observer readout
Local Sidereal Time
21:26:56
Azimuth
Unknown
Elevation
Unknown
Doppler factor
Unknown
Orbital elements
Apogee altitude
164.601 km
Perigee altitude
160.317 km
Semi-major axis
6,540.596 km
Eccentricity
0.00033
Inclination
53.0321°
RAAN
169.0921°
Arg. of periapsis
286.5923°
True anomaly
245.85355°
Mean anomaly
245.8878°
Eccentric anomaly
245.87068°
Mean motion
4.10315 °/min
Orbital period
87.74 mins
BSTAR
0.0007659
Loading maneuver chart data...
Computing Atmospheric mass density...

Documentation

Showing up to 5 results
|